Weather History for KDIJ - May, 2013

Change the Weather History Date:

Sunday, May 26, 2013

  Actual Average (KRXE) Record (KRXE)
Temperature  
Mean Temperature 54 °F 55 °F  
Max Temperature 69 °F 69 °F 82 °F (2014)
Min Temperature 38 °F 42 °F 36 °F (2011)
Degree Days  
Heating Degree Days 12 10  
Month to date heating degree days 346  
Since 1 July heating degree days 7911  
Cooling Degree Days 0 0  
Month to date cooling degree days 0  
Year to date cooling degree days 0  
Growing Degree Days 4 (Base 50)    
Moisture  
Dew Point 33 °F    
Average Humidity 48    
Maximum Humidity 80    
Minimum Humidity 22    
Precipitation  
Precipitation 0.00 in 0.05 in - ()
Month to date precipitation 1.42  
Year to date precipitation 5.53  
Sea Level Pressure  
Sea Level Pressure 29.81 in    
Wind  
Wind Speed 6 mph (South)    
Max Wind Speed 23 mph    
Max Gust Speed 24 mph    
Visibility 10 miles    
Events Rain    
T = Trace of Precipitation, MM = Missing Value Source: NWS Daily Summary

Daily Weather History Graph

Daily Weather History Graph

Search for Another Location

Airport or City:

Trip Planner

Search our weather history database for the weather conditions in past years. The results will help you decide how hot, cold, wet, or windy it might be!

Date:

Astronomy

May. 26, 2013 Rise Set
Actual Time 5:48 AM MDT 8:54 PM MDT
Civil Twilight 5:14 AM MDT 9:29 PM MDT
Nautical Twilight 4:30 AM MDT 10:13 PM MDT
Astronomical Twilight 3:37 AM MDT 11:07 PM MDT
Moon 10:44 PM MDT (5/26) 7:22 AM MDT (5/26)
Length of Visible Light 16h 14m
Length of Day
15h 05m
Waning Gibbous, 96% of the Moon is Illuminated
May 26
Waning Gibbous
May 31
Last Quarter
Jun 8
New
Jun 16
First Quarter
Jun 23
Full

Hourly Weather History & Observations

Time (MDT) Temp. Windchill Dew Point Humidity Pressure Visibility Wind Dir Wind Speed Gust Speed Precip Events Conditions
12:56 AM 39.9 °F - 32.0 °F 73% 29.81 in 10.0 mi Calm Calm - N/A   Clear
1:56 AM 39.9 °F 36.7 °F 27.1 °F 60% 29.83 in 10.0 mi ESE 4.6 mph - N/A   Clear
2:56 AM 41.9 °F - 28.0 °F 58% 29.81 in 10.0 mi Calm Calm - N/A   Clear
3:56 AM 41.9 °F 40.0 °F 28.0 °F 58% 29.83 in 10.0 mi ESE 3.5 mph - N/A   Clear
4:56 AM 38.8 °F 35.4 °F 31.1 °F 74% 29.85 in 10.0 mi SE 4.6 mph - N/A   Clear
5:56 AM 39.9 °F 37.8 °F 29.1 °F 65% 29.84 in 10.0 mi SE 3.5 mph - N/A   Clear
6:56 AM 41.9 °F - 32.9 °F 70% 29.84 in 10.0 mi Calm Calm - N/A   Clear
7:56 AM 46.9 °F - 34.9 °F 63% 29.81 in 10.0 mi East 4.6 mph - N/A   Clear
8:56 AM 52.9 °F - 36.0 °F 53% 29.82 in 10.0 mi Calm Calm - N/A   Clear
9:56 AM 57.9 °F - 34.0 °F 41% 29.80 in 10.0 mi South 4.6 mph - N/A   Mostly Cloudy
10:56 AM 61.0 °F - 36.0 °F 39% 29.80 in 10.0 mi Variable 3.5 mph - N/A   Partly Cloudy
11:56 AM 65.8 °F - 30.0 °F 26% 29.77 in 10.0 mi SSE 11.5 mph - N/A   Clear
12:56 PM 68.0 °F - 28.0 °F 22% 29.76 in 10.0 mi SW 15.0 mph - N/A   Partly Cloudy
1:56 PM 68.9 °F - 28.0 °F 22% 29.75 in 10.0 mi SSW 16.1 mph 20.7 mph N/A   Scattered Clouds
2:48 PM 69.8 °F - 32.0 °F 25% 29.95 in 10.0 mi SW 17.3 mph - N/A   Scattered Clouds
2:56 PM 66.9 °F - 28.0 °F 23% 29.75 in 10.0 mi SW 23.0 mph - N/A   Mostly Cloudy
3:56 PM 66.9 °F - 32.9 °F 28% 29.77 in 10.0 mi West 17.3 mph 24.2 mph N/A   Partly Cloudy
4:56 PM 63.0 °F - 32.9 °F 32% 29.80 in 10.0 mi West 12.7 mph - N/A   Mostly Cloudy
5:56 PM 63.0 °F - 32.9 °F 32% 29.79 in 10.0 mi SW 4.6 mph - N/A   Mostly Cloudy
6:56 PM 61.9 °F - 32.9 °F 34% 29.79 in 10.0 mi East 4.6 mph - N/A   Scattered Clouds
7:56 PM 61.9 °F - 41.9 °F 48% 29.76 in 10.0 mi ENE 4.6 mph - N/A   Clear
8:56 PM 52.9 °F - 41.9 °F 66% 29.77 in 10.0 mi NNE 8.1 mph - N/A   Clear
9:56 PM 52.9 °F - 36.0 °F 53% 29.78 in 10.0 mi NW 12.7 mph - N/A   Mostly Cloudy
10:56 PM 50.9 °F - 38.8 °F 63% 29.84 in 10.0 mi South 6.9 mph - 0.00 in Rain Light Rain
11:56 PM 45.9 °F 41.2 °F 39.9 °F 80% 29.82 in 10.0 mi East 9.2 mph - 0.00 in   Clear